Location: Newark
(18.8198°N, 82.1672°E)
Time: 19:01:22
(UTC+00:00)

OTV 5 (USA 277) - Pass Details

Date: 24 August 2019
Orbit: 310 x 324 km, 54.5° (Epoch: 08 October)

Event Time Altitude Azimuth Distance (km) Brightness Sun altitude
Exits shadow 22:58:15 60° 13° (NNE) 359 ? -18.3°
Maximum altitude 22:58:31 67° 54° (NE) 340 ? -18.3°
Drops below altitude 10° 23:01:10 10° 138° (SE) 1,202 ? -17.7°
Sets 23:03:08 0° 141° (SE) 2,031 ? -17.2°
